Location: Marshall
(39.8477°N, 87.1868°W)
Time: 02:58:37
(UTC+00:00)

Envisat - Pass Details

Date: 16 May 2026
Orbit: 761 x 763 km, 98.4° (Epoch: 9 June)

Event Time Altitude Azimuth Distance (km) Brightness Sun altitude
Rises 08:16:48 0° 15° (NNE) 3,231 7.4 -21.2°
Reaches altitude 10° 08:19:08 10° 17° (NNE) 2,301 6.5 -21.0°
Maximum altitude 08:24:12 73° 102° (ESE) 798 3.1 -20.3°
Enters shadow 08:26:31 32° 180° (S) 1,275 3.7 -20.0°
